This is the latest recevied weather packets stored in our database for station/object IU2EVW-13. If no packets are shown the sender has not sent any weather packets the latest 10 day(s).
| Time | Temp. | Humidity | Pressure | Rain* | Wind** | Luminosity | Snow |
|---|---|---|---|---|---|---|---|
| 1778052074 | 10.56° C | 77% | 1011.2 hPa | - | - | - | - |
| 1778050873 | 10° C | 82% | 1011.4 hPa | - | - | - | - |
| 1778049671 | 10° C | 83% | 1011.4 hPa | - | - | - | - |
| 1778048470 | 10° C | 81% | 1011.5 hPa | - | - | - | - |
| 1778047269 | 9.44° C | 85% | 1011.6 hPa | - | - | - | - |
| 1778046067 | 9.44° C | 88% | 1011.7 hPa | - | - | - | - |
| 1778044866 | 8.89° C | 88% | 1011.8 hPa | - | - | - | - |
| 1778043664 | 8.89° C | 87% | 1011.8 hPa | - | - | - | - |
| 1778042463 | 9.44° C | 87% | 1011.8 hPa | - | - | - | - |
| 1778041262 | 9.44° C | 86% | 1011.7 hPa | - | - | - | - |
| 1778040060 | 9.44° C | 86% | 1011.8 hPa | - | - | - | - |
| 1778038859 | 9.44° C | 86% | 1012 hPa | - | - | - | - |
| 1778037658 | 8.89° C | 87% | 1012.1 hPa | - | - | - | - |
| 1778036456 | 8.89° C | 87% | 1012.3 hPa | - | - | - | - |
| 1778035255 | 9.44° C | 85% | 1012.7 hPa | - | - | - | - |
| 1778034053 | 9.44° C | 86% | 1013.1 hPa | - | - | - | - |
| 1778032852 | 9.44° C | 84% | 1013 hPa | - | - | - | - |
| 1778031651 | 9.44° C | 85% | 1013.2 hPa | - | - | - | - |
| 1778030449 | 9.44° C | 85% | 1013 hPa | - | - | - | - |
| 1778029248 | 9.44° C | 84% | 1013.5 hPa | - | - | - | - |
| 1778028046 | 9.44° C | 84% | 1013.7 hPa | - | - | - | - |
| 1778026845 | 9.44° C | 85% | 1013.8 hPa | - | - | - | - |
| 1778025644 | 9.44° C | 86% | 1014 hPa | - | - | - | - |
| 1778024443 | 9.44° C | 84% | 1014.2 hPa | - | - | - | - |
| 1778023241 | 9.44° C | 84% | 1014.4 hPa | - | - | - | - |
* Rain since midnight (hover to see other rain measurements)
** Current wind speed in m/s (hover to see current wind gust speed)